Location: *
(32.9231°S, 151.7322°E)
Time: 14:05:44
(UTC+00:00)

Daily predictions for brighter satellites

Satellite Brightness Start Highest point End
(mag) Time Altitude Azimuth Time Altitude Azimuth Time Altitude Azimuth
ATLAS CENTAUR R/B 4.5 17:15:12 11° SE 17:15:12 11° SE 17:15:27 10° SE
USA 215 3.8 17:07:57 10° ENE 17:14:19 55° SE 17:15:07 52° SSE
SL-16 R/B 2.7 17:39:01 53° SSE 17:39:01 53° SSE 17:43:20 10° SSE
OAO 2 Rocket 4.2 17:40:05 46° ESE 17:40:05 46° ESE 17:43:43 10° ESE
CZ-3A R/B 3.9 17:41:31 41° N 17:41:31 41° N 17:44:55 10° ENE
Cosmos 2034 Rocket 4.2 17:43:51 59° SSW 17:43:51 59° SSW 17:49:00 10° S
BREEZE M DEB (TANK) 3.5 17:46:54 49° SSE 17:46:54 49° SSE 17:54:40 10° ESE
Nadezhda 4 Rocket 4.0 17:42:32 10° S 17:48:47 79° E 17:55:02 10° N
Atlas Centaur 2 2.6 17:51:09 43° NE 17:51:09 43° NE 17:55:06 10° ENE
Cosmos 2322 Rocket 2.2 17:52:33 70° S 17:52:33 70° S 17:57:38 10° SSE
Cosmos 2263 Rocket 2.4 17:47:00 10° SSW 17:52:36 66° ESE 17:58:09 10° NNE
Cosmos 2360 Rocket 3.0 17:50:14 27° NNE 17:52:57 49° ENE 17:58:26 10° SSE
CZ-4C R/B 3.0 17:51:39 39° NNW 17:55:08 81° ENE 18:02:38 10° SSE
Cosmos 2227 4.1 17:58:15 49° SSW 17:59:53 85° WNW 18:05:35 10° NNE
ATLAS 2A CENTAUR R/B 4.5 17:55:55 31° NW 18:00:17 40° N 18:05:08 10° ENE
Cosmos 1980 Rocket 4.4 18:03:23 11° SSW 18:03:23 11° SSW 18:03:49 10° SSW
FENGYUN 3A 4.0 17:58:15 10° NNE 18:03:33 64° ESE 18:08:56 10° S
H-2A R/B 3.8 18:05:43 10° S 18:07:35 23° SSW 18:07:35 23° SSW
Cosmos 923 Rocket 4.2 18:08:20 29° N 18:10:59 70° ENE 18:16:15 10° SSE
Cosmos 405 Rocket 3.7 18:14:15 38° S 18:14:15 38° S 18:16:50 10° S
Delta 2 Rocket 3.7 18:16:42 63° WSW 18:17:20 72° S 18:22:02 10° ESE
Landsat 5 4.5 18:15:51 10° S 18:18:38 34° SSW 18:18:38 34° SSW
METEOR-M 4.0 18:17:03 10° NNE 18:22:25 88° W 18:27:52 10° SSW
OAO 3 Rocket 3.2 18:21:36 56° SW 18:22:27 69° S 18:27:13 10° E
CZ-4B R/B 1.7 18:19:15 10° SSE 18:22:29 61° E 18:22:42 59° NE
Cosmos 1674 Rocket 3.4 18:19:41 10° S 18:24:13 79° W 18:28:42 10° N
STARLINK-1170 3.9 18:24:21 45° S 18:24:55 51° SE 18:28:18 10° ENE
STARLINK-1234 4.4 18:25:53 28° NE 18:26:13 28° NE 18:28:53 10° ESE
Cosmos 1680 Rocket 3.6 18:26:02 10° NNW 18:31:19 82° ENE 18:36:43 10° SSE
PSLV R/B 3.7 18:28:22 10° N 18:32:22 82° W 18:36:19 10° SSW
Cosmos 2237 4.1 18:29:09 24° NNW 18:32:41 73° WSW 18:38:28 10° SSE
Cosmos 2279 Rocket 4.3 18:26:44 10° N 18:32:57 69° E 18:39:14 10° SSE
Cosmos 1627 Rocket 4.5 18:29:55 10° S 18:36:21 89° WSW 18:42:39 10° N
STARLINK-1149 3.3 18:36:53 40° SSW 18:38:01 73° SE 18:41:30 10° NE
ATLAS 3B CENTAUR R/B 4.1 18:32:10 29° WNW 18:38:12 72° N 18:59:13 10° E
Cosmos 1066 Rocket 4.1 18:35:24 10° S 18:40:58 83° W 18:46:37 10° N
COSMOS 2428 4.1 18:38:02 10° N 18:43:14 39° ENE 18:48:30 10° SE
STARLINK-1179 2.7 18:44:12 51° SW 18:44:54 85° NW 18:48:03 10° NE
STARLINK-1176 2.7 18:44:38 50° SW 18:45:21 84° NW 18:48:30 10° NE
STARLINK-1173 2.7 18:46:59 41° SW 18:47:56 85° NW 18:51:05 10° NE
STARLINK-1136 2.7 18:47:25 41° SW 18:48:23 84° NW 18:51:32 10° NE
Cosmos 2195 Rocket 4.4 18:42:44 10° SSW 18:48:51 63° W 18:54:52 10° N
Cosmos 1544 4.5 18:45:58 10° NNE 18:49:29 42° E 18:53:03 10° SSE
Lacrosse 5 2.0 18:45:10 10° SW 18:50:21 79° SE 18:55:27 10° NE
Cosmos 2322 3.7 18:44:52 10° NNW 18:50:35 86° ENE 18:56:22 10° SSE
SJ-12 4.3 18:46:54 10° N 18:50:45 40° W 18:54:38 10° SSW
ATLAS CENTAUR R/B 3.0 18:51:25 17° SW 18:51:25 17° SW 18:53:41 10° S
Sich 1 Rocket 4.0 18:47:23 10° N 18:51:48 66° E 18:56:18 10° SSE
Cosmos 1908 Rocket 4.0 18:51:01 22° NW 18:53:20 38° W 18:57:26 10° S
ALOS 2.8 18:49:19 10° NNW 18:53:38 37° W 18:58:01 10° SSW
STARLINK-1133 2.8 18:52:39 29° SW 18:54:09 84° NW 18:57:19 10° NE
Cosmos 2333 4.3 18:48:43 10° NNW 18:54:23 84° ENE 19:00:11 10° SSE
STARLINK-1153 2.8 18:53:00 28° SW 18:54:34 84° NW 18:57:46 10° NE
STARLINK-1180 2.8 18:52:57 27° SW 18:54:35 84° NW 18:57:48 10° NE
STARLINK-1174 2.8 18:53:03 28° SW 18:54:37 84° NW 18:57:48 10° NE
STARLINK-1139 2.8 18:53:04 27° SW 18:54:40 84° NW 18:57:53 10° NE
STARLINK-1151 2.8 18:53:17 28° SW 18:54:48 83° NW 18:57:58 10° NE
STARLINK-1183 2.7 18:53:26 29° SW 18:54:55 83° NW 18:58:04 10° NE
STARLINK-1181 2.7 18:53:52 28° SW 18:55:22 81° NW 18:58:31 10° NE
MOS 1-B 4.4 18:49:53 10° N 18:55:33 58° WNW 19:01:19 10° SSW
STARLINK-1196 2.7 18:54:19 28° SW 18:55:49 80° NW 18:58:58 10° NE
STARLINK-1209 2.5 18:55:12 34° NW 18:56:15 85° NE 18:59:06 10° SE
STARLINK-1186 2.7 18:54:45 28° SW 18:56:15 79° NW 18:59:22 10° NE
STARLINK-1185 2.7 18:55:10 27° SW 18:56:43 78° NW 18:59:51 10° NE
Cosmos 2219 Rocket 2.9 18:51:26 10° N 18:56:54 57° ENE 19:02:26 10° SSE
STARLINK-1175 2.7 18:55:40 28° SW 18:57:10 77° NW 19:00:16 10° NE
USA 215 3.9 18:51:30 10° N 18:57:22 35° NW 19:02:31 13° WSW
STARLINK-1147 2.7 18:56:02 26° SW 18:57:37 76° NW 19:00:45 10° NE
STARLINK-1146 2.7 18:56:28 26° SW 18:58:04 75° NW 19:01:12 10° NE
Cosmos 1378 3.4 18:54:36 10° S 18:58:22 70° E 19:02:04 10° NNE
STARLINK-1228 2.6 18:57:13 31° NW 18:58:27 89° SSW 19:01:22 10° SE
STARLINK-1152 2.8 18:56:54 26° SW 18:58:32 74° NW 19:01:39 10° NE
STARLINK-1195 2.7 18:57:23 26° SW 18:58:57 73° NW 19:02:03 10° NE
STARLINK-1137 2.8 18:57:45 25° SW 18:59:24 72° NW 19:02:32 10° NE
STARLINK-1142 2.7 18:58:14 25° SW 18:59:51 70° NW 19:02:58 10° NE
Okean O Rocket 1.7 18:55:49 10° NNE 19:00:17 84° ESE 19:04:50 10° S
STARLINK-1127 2.8 18:58:38 25° SW 19:00:20 70° NW 19:03:27 10° NE
STARLINK-1184 2.8 18:59:04 24° SW 19:00:46 69° NW 19:03:54 10° NE
STARLINK-1193 2.8 18:59:33 24° SW 19:01:13 67° NW 19:04:18 10° NE
STARLINK-1194 2.8 18:59:56 24° SW 19:01:40 67° NW 19:04:46 10° NE
STARLINK-1168 2.9 18:59:46 22° SW 19:01:42 67° NW 19:04:55 10° NE
STARLINK-1164 2.9 18:59:50 22° SW 19:01:45 67° NW 19:04:58 10° NE
STARLINK-1182 2.9 18:59:55 22° SW 19:01:50 67° NW 19:05:04 10° NE
Cosmos 1743 3.2 18:58:12 10° NNW 19:01:53 39° W 19:05:36 10° S
STARLINK-1172 2.9 19:00:32 22° SW 19:02:27 66° NW 19:05:39 10° NE
STARLINK-1145 2.9 19:00:38 22° SW 19:02:37 66° NW 19:05:51 10° NE
STARLINK-1161 2.9 19:00:47 21° SW 19:02:46 65° NW 19:06:00 10° NE
STARLINK-1160 2.9 19:00:56 21° SW 19:02:56 65° NW 19:06:09 10° NE
Okean 2 Rocket 4.1 19:00:02 10° N 19:04:26 52° E 19:08:55 10° SSE
ERBS 2.5 19:03:59 23° WNW 19:05:49 50° SW 19:09:08 10° SSE
SMAP 4.3 19:01:56 10° NNE 19:06:24 46° ESE 19:10:54 10° S
Cosmos 1378 Rocket 4.3 19:04:27 10° SSW 19:08:18 30° W 19:12:04 10° NNW
DELTA 2 R/B (1) 3.9 19:04:56 14° WSW 19:09:52 66° SSE 19:15:27 10° ENE
STARLINK-67 3.4 19:09:28 25° WSW 19:10:15 31° SW 19:12:39 10° SSE
STARLINK-1201 3.0 19:08:39 12° NW 19:11:38 80° NE 19:14:56 10° SE
Cosmos 1975 2.9 19:08:26 10° NNW 19:12:29 60° W 19:16:36 10° S
Cosmos 2112 Rocket 4.3 19:07:50 10° NW 19:12:55 46° WSW 19:18:07 10° S
STARLINK-1150 3.6 19:12:33 16° WSW 19:14:49 38° NW 19:17:57 10° NNE
STARLINK-1203 4.4 19:11:54 10° NNW 19:15:47 50° NE 19:19:44 10° SE
Cosmos 1844 Rocket 3.0 19:12:52 10° SSW 19:18:30 71° ESE 19:24:04 10° NNE
Cosmos 1437 Rocket 3.1 19:15:32 10° SSW 19:19:18 42° W 19:23:06 10° NNW
STARLINK-1132 3.9 19:19:49 13° WSW 19:22:24 31° NW 19:25:26 10° NNE
SL-16 R/B 4.1 19:20:59 10° WSW 19:22:28 11° SW 19:23:56 10° SW
OAO 2 Rocket 3.5 19:19:02 13° WSW 19:23:36 74° S 19:28:46 10° E
STARLINK-1230 4.3 19:19:41 10° NNW 19:23:41 54° NE 19:27:44 10° SE
Cosmos 2333 Rocket 2.2 19:18:40 10° NNW 19:24:22 76° WSW 19:30:10 10° SSE
STARLINK-1177 4.0 19:21:51 12° WSW 19:24:31 30° NW 19:27:30 10° N
STARLINK-1233 2.9 19:21:46 10° NW 19:24:53 63° SW 19:28:02 10° SE
Cosmos 1655 Rocket 4.1 19:18:32 10° S 19:25:00 88° W 19:31:25 10° N
STARLINK-1212 2.9 19:22:12 10° NW 19:25:20 62° SW 19:28:29 10° SE
STARLINK-1105 2.9 19:22:40 10° NW 19:25:47 61° SW 19:28:55 10° SE
STARLINK-1167 4.1 19:23:13 12° WSW 19:25:56 29° NW 19:28:53 10° N
STARLINK-1206 3.0 19:23:07 10° NW 19:26:13 60° SW 19:29:23 10° SE
STARLINK-1247 3.0 19:23:32 10° NW 19:26:39 59° SW 19:29:48 10° SE
STARLINK-1227 3.0 19:24:02 10° NW 19:27:09 59° SW 19:30:17 10° SE
STARLINK-1218 3.0 19:24:27 10° NW 19:27:33 58° SW 19:30:43 10° SE
STARLINK-1226 3.0 19:24:55 10° NW 19:28:01 57° SW 19:31:09 10° SE
STARLINK-1243 4.1 19:24:28 10° NNW 19:28:30 61° NE 19:32:35 10° SE
STARLINK-1254 3.0 19:25:24 10° NW 19:28:30 56° SW 19:31:38 10° SE
STARLINK-1215 3.0 19:25:49 10° NW 19:28:55 55° SW 19:32:03 10° SE
STARLINK-1231 3.1 19:26:15 10° WNW 19:29:21 55° SW 19:32:29 10° SE
STARLINK-1163 4.2 19:26:51 10° WSW 19:29:42 26° NW 19:32:34 10° N
STARLINK-1232 3.1 19:27:11 10° WNW 19:30:16 53° SW 19:33:24 10° SE
STARLINK-1217 3.1 19:27:38 10° WNW 19:30:43 53° SW 19:33:51 10° SE
STARLINK-1208 3.1 19:28:06 10° WNW 19:31:12 52° SW 19:34:18 10° SE
STARLINK-1229 3.1 19:28:32 10° WNW 19:31:37 51° SW 19:34:44 10° SE
STARLINK-1271 3.1 19:29:00 10° WNW 19:32:04 50° SW 19:35:11 10° SE
STARLINK-1270 3.2 19:29:27 10° WNW 19:32:32 50° SW 19:35:39 10° SSE
Cosmos 2084 3.4 19:28:29 10° NW 19:32:41 63° WSW 19:36:55 10° SSE
STARLINK-1154 3.2 19:29:54 10° WNW 19:32:59 49° SW 19:36:06 10° SSE
Cosmos 1300 Rocket 3.6 19:28:40 10° N 19:33:02 88° WSW 19:37:30 10° S
STARLINK-1236 4.0 19:29:12 10° NW 19:33:17 69° NE 19:37:24 10° SE
STARLINK-1197 3.2 19:30:49 10° WNW 19:33:53 48° SW 19:36:59 10° SSE
STARLINK-1189 3.2 19:31:16 10° WNW 19:34:20 47° SW 19:37:26 10° SSE
STARLINK-1187 3.5 19:32:15 10° WNW 19:35:14 39° SW 19:38:14 10° SSE
STARLINK-1198 3.3 19:32:12 10° WNW 19:35:14 46° SW 19:38:19 10° SSE
STARLINK-1188 3.3 19:32:11 10° WNW 19:35:14 46° SW 19:38:19 10° SSE
Cosmos 2263 Rocket 3.8 19:33:31 10° WSW 19:35:50 13° W 19:38:07 10° WNW
STARLINK-1235 3.8 19:33:04 10° WNW 19:35:57 33° SW 19:38:51 10° SSE
Lacrosse 4 Rocket 1.8 19:32:23 10° SSW 19:36:29 67° ESE 19:40:35 10° NNE
Cosmos 2360 Rocket 3.5 19:33:06 10° WNW 19:37:11 20° WSW 19:41:18 10° SSW
STARLINK-1199 3.3 19:34:13 10° WNW 19:37:14 43° SW 19:40:17 10° SSE
STARLINK-1162 4.1 19:33:22 10° SW 19:37:36 67° SE 19:41:46 10° NE
STARLINK-1191 3.4 19:34:39 10° WNW 19:37:41 43° SW 19:40:44 10° SSE
STARLINK-1210 3.4 19:35:07 10° WNW 19:38:09 42° SW 19:41:12 10° SSE
STARLINK-1221 3.4 19:35:34 10° WNW 19:38:34 42° SW 19:41:36 10° SSE
Atlas Centaur 2 3.0 19:34:05 10° W 19:38:36 34° NNW 19:44:11 10° NE
STARLINK-1129 4.0 19:34:40 10° SW 19:38:52 67° SE 19:43:01 10° NE
STARLINK-1219 3.4 19:36:03 10° WNW 19:39:03 41° SW 19:42:06 10° SSE
STARLINK-1222 3.4 19:36:29 10° WNW 19:39:30 41° SW 19:42:31 10° SSE
STARLINK-1211 3.5 19:36:57 10° WNW 19:39:57 40° SW 19:42:58 10° SSE
Cosmos 1975 Rocket 3.5 19:36:30 10° SSW 19:40:37 40° W 19:44:41 10° NNW
Radarsat Rocket 4.3 19:35:12 10° N 19:40:47 46° W 19:46:48 10° SSW
CZ-4C R/B 4.1 19:38:17 10° W 19:44:21 23° SW 19:49:54 10° S
CZ-3 R/B 2.6 19:30:36 10° W 19:50:09 66° NNW 19:55:32 10° ENE
